FW6800 Weather Reports


Display with metric or nautical units.
time (UTC)temp
F
wind
direction
speed
MPH
gust
MPH
rain 1hr
in
rain 24hr
in
rain mn
in
humidity
%
barometer
mb
20230208103022 20 0.0 0.0 0.00 0.00 0.00 87 1015.9
20230208102048 20 0.0 0.0 0.00 0.00 0.00 87 1016.0
20230208101114 20 0.0 0.0 0.00 0.00 0.00 88 1016.0
20230208100018 20 0.0 0.0 0.00 0.00 0.00 89 1016.1
20230208095023 21 0.0 0.0 0.00 0.00 0.00 90 1016.1
20230208094028 20 0.0 0.0 0.00 0.00 0.00 91 1016.2
20230208093015 19 0.0 0.0 0.00 0.00 0.00 94 1016.3
20230208092041 18 0.0 0.0 0.00 0.00 0.00 93 1016.4
20230208091025 19 0.0 0.0 0.00 0.00 0.00 93 1016.5
20230208090029 19 0.0 0.0 0.00 0.00 0.00 91 1016.6
20230208085037 19 0.0 0.0 0.00 0.00 0.00 90 1016.8
20230208084022 20 0.0 0.0 0.00 0.00 0.00 90 1016.8
20230208083026 20 0.0 0.0 0.00 0.00 0.00 89 1016.8
20230208082030 20 0.0 0.0 0.00 0.00 0.00 89 1016.9
20230208081017 20 0.0 0.0 0.00 0.00 0.00 89 1017.1
20230208080042 20 0.0 0.0 0.00 0.00 0.00 87 1017.3
20230208075028 21 0.0 0.0 0.00 0.00 0.00 87 1017.5
20230208074026 21 0.0 0.0 0.00 0.00 0.00 86 1017.7
20230208073018 21 0.0 0.0 0.00 0.00 0.00 85 1017.9
20230208072024 22 0.0 0.0 0.00 0.00 0.00 84 1018.0
20230208071023 21 0.0 0.0 0.00 0.00 0.00 86 1018.1
20230208070015 22 0.0 0.0 0.00 0.00 0.00 85 1018.2
20230208065040 22 0.0 0.0 0.00 0.00 0.00 86 1018.1
20230208064020 21 0.0 0.0 0.00 0.00 0.00 87 1018.2
20230208063018 21 0.0 0.0 0.00 0.00 0.00 86 1018.1
20230208062017 21 0.0 0.0 0.00 0.00 0.00 88 1018.0
20230208061055 21 0.0 0.0 0.00 0.00 0.00 86 1017.7
20230208060026 21 0.0 0.0 0.00 0.00 0.00 85 1017.8
20230208055031 21 0.0 0.0 0.00 0.00 0.00 84 1017.8
20230208054017 23 0.0 0.0 0.00 0.00 0.00 85 1017.6
20230208053023 22 0.0 0.0 0.00 0.00 0.00 85 1017.7
20230208052027 22 0.0 0.0 0.00 0.00 0.00 84 1017.8
20230208051032 22 0.0 0.0 0.00 0.00 0.00 83 1017.7
20230208050019 23 0.0 0.0 0.00 0.00 0.00 81 1017.8
20230208045024 23 0.0 0.0 0.00 0.00 0.00 80 1017.7
20230208044030 24 0.0 0.0 0.00 0.00 0.00 79 1017.9
20230208043015 24 0.0 0.0 0.00 0.00 0.00 79 1017.9
20230208042020 25 0.0 0.0 0.00 0.00 0.00 78 1017.9
20230208041026 26 0.0 0.0 0.00 0.00 0.00 78 1017.9
20230208040030 26 0.0 0.0 0.00 0.00 0.00 78 1018.1
20230208035018 26 0.0 0.0 0.00 0.00 0.00 79 1018.0
20230208034123 27 0.0 0.0 0.00 0.00 0.00 80 1018.3
20230208033026 27 0.0 0.0 0.00 0.00 0.00 80 1018.3
20230208032113 27 0.0 0.0 0.00 0.00 0.00 84 1018.4
20230208031038 27 0.0 0.0 0.00 0.00 0.00 84 1018.5
20230208030024 27 0.0 0.0 0.00 0.00 0.00 80 1018.6
20230208025027 28 0.0 0.0 0.00 0.00 0.00 82 1018.6
20230208024032 27 0.0 0.0 0.00 0.00 0.00 78 1018.8
20230208023019 28 0.0 0.0 0.00 0.00 0.00 81 1018.8
20230208022024 28 0.0 0.0 0.00 0.00 0.00 76 1018.7
20230208021029 30 0.0 0.0 0.00 0.00 0.00 73 1019.0
20230208020016 31 0.0 0.0 0.00 0.00 0.00 75 1019.0
20230208015020 32 0.0 0.0 0.00 0.00 0.00 73 1019.2
20230208014025 32 191 1.0 2.0 0.00 0.00 0.00 72 1019.1
20230208013052 33 203 1.0 3.0 0.00 0.00 0.00 69 1019.1
20230208012017 34 199 2.0 4.0 0.00 0.00 0.00 67 1019.1
20230208011044 34 199 2.0 4.0 0.00 0.00 0.00 61 1019.0
20230208010046 35 191 1.0 3.0 0.00 0.00 0.00 56 1019.1
20230208005031 35 236 3.0 5.0 0.00 0.00 0.00 55 1018.8
20230208004018 36 203 0.0 2.0 0.00 0.00 0.00 53 1018.7
20230208003023 38 158 0.0 2.0 0.00 0.00 0.00 48 1018.6
20230208002028 39 138 3.0 4.0 0.00 0.00 0.00 47 1018.5
20230208001032 40 120 4.0 5.0 0.00 0.00 0.00 44 1018.4
20230208000019 0 113 4.0 4.0 0.00 0.00 0.00 1018.4
20230207235025 42 6.0 6.0 0.00 0.00 0.00 39 1018.3
20230207234029 43 113 5.0 7.0 0.00 0.00 0.00 38 1018.2
20230207233016 44 100 6.0 8.0 0.00 0.00 0.00 38 1018.1
20230207232022 44 109 7.0 8.0 0.00 0.00 0.00 37 1018.1
20230207231025 45 80 7.0 7.0 0.00 0.00 0.00 37 1018.0
20230207230024 46 110 7.0 8.0 0.00 0.00 0.00 35 1017.8
20230207225057 46 103 7.0 9.0 0.00 0.00 0.00 34 1017.8
20230207224022 46 97 8.0 10.0 0.00 0.00 0.00 34 1017.7
20230207223020 47 113 7.0 8.0 0.00 0.00 0.00 33 1017.7
20230207222039 48 107 7.0 9.0 0.00 0.00 0.00 32 1017.6
20230207221018 49 122 5.0 6.0 0.00 0.00 0.00 30 1017.7
20230207220038 50 107 6.0 10.0 0.00 0.00 0.00 30 1017.6
20230207215016 50 98 6.0 8.0 0.00 0.00 0.00 30 1017.5
20230207214032 51 133 4.0 8.0 0.00 0.00 0.00 28 1017.3
20230207213020 51 121 5.0 7.0 0.00 0.00 0.00 25 1017.4
20230207212026 52 163 3.0 4.0 0.00 0.00 0.00 24 1017.4
20230207211029 51 127 5.0 8.0 0.00 0.00 0.00 25 1017.3
20230207210016 53 157 3.0 5.0 0.00 0.00 0.00 24 1017.6
20230207205020 52 157 3.0 4.0 0.00 0.00 0.00 24 1017.7
20230207204025 52 161 3.0 5.0 0.00 0.00 0.00 25 1017.9
20230207203030 52 150 3.0 4.0 0.00 0.00 0.00 25 1018.1
20230207202017 52 173 3.0 4.0 0.00 0.00 0.00 24 1018.3
20230207201022 52 180 3.0 5.0 0.00 0.00 0.00 24 1018.6
20230207200026 51 174 3.0 5.0 0.00 0.00 0.00 25 1018.6
20230207195031 51 166 4.0 6.0 0.00 0.00 0.00 26 1018.6
20230207194018 50 180 2.0 3.0 0.00 0.00 0.00 26 1018.7
20230207193023 50 147 3.0 5.0 0.00 0.00 0.00 27 1018.8
20230207192029 50 165 3.0 4.0 0.00 0.00 0.00 26 1018.9
20230207191032 49 150 3.0 5.0 0.00 0.00 0.00 26 1019.2
20230207190019 49 158 3.0 6.0 0.00 0.00 0.00 27 1019.3
20230207185044 48 171 3.0 5.0 0.00 0.00 0.00 27 1019.5
20230207184029 48 154 3.0 5.0 0.00 0.00 0.00 28 1019.8
20230207183017 48 160 3.0 4.0 0.00 0.00 0.00 29 1019.8
20230207182022 47 2.0 2.0 0.00 0.00 0.00 29 1019.8
20230207181025 47 180 3.0 3.0 0.00 0.00 0.00 29 1019.8
20230207180030 46 165 3.0 5.0 0.00 0.00 0.00 30 1019.8
20230207175017 46 169 3.0 4.0 0.00 0.00 0.00 31 1019.8
20230207174022 45 190 3.0 6.0 0.00 0.00 0.00 32 1019.7
20230207173026 45 165 3.0 5.0 0.00 0.00 0.00 32 1019.7
20230207172031 43 159 3.0 5.0 0.00 0.00 0.00 34 1019.8
20230207171018 0 203 4.0 4.0 0.00 0.00 0.00 1019.7
20230207170043 40 179 3.0 5.0 0.00 0.00 0.00 38 1019.7
20230207165028 39 159 3.0 5.0 0.00 0.00 0.00 41 1019.6
20230207164054 38 175 2.0 4.0 0.00 0.00 0.00 43 1019.8
20230207163040 37 180 2.0 4.0 0.00 0.00 0.00 44 1019.8
20230207162044 36 179 2.0 4.0 0.00 0.00 0.00 45 1019.7
20230207161029 34 172 1.0 3.0 0.00 0.00 0.00 49 1019.7
20230207160036 33 180 1.0 4.0 0.00 0.00 0.00 51 1019.6
20230207155021 32 189 1.0 3.0 0.00 0.00 0.00 52 1019.7
20230207154027 30 194 3.0 4.0 0.00 0.00 0.00 56 1019.5
20230207153052 28 190 2.0 3.0 0.00 0.00 0.00 63 1019.4
20230207152057 26 0.0 0.0 0.00 0.00 0.00 69 1019.4
20230207151018 25 180 0.0 1.0 0.00 0.00 0.00 68 1019.3
20230207150103 23 203 0.0 1.0 0.00 0.00 0.00 73 1019.3
20230207145028 20 0.0 0.0 0.00 0.00 0.00 80 1019.0
20230207144053 19 0.0 0.0 0.00 0.00 0.00 81 1018.9
20230207143020 19 0.0 0.0 0.00 0.00 0.00 82 1018.7
20230207142024 17 0.0 0.0 0.00 0.00 0.00 80 1018.6
20230207141029 18 0.0 0.0 0.00 0.00 0.00 80 1018.7
20230207114550 20 0.0 0.0 0.00 0.00 0.00 77 1017.4
20230207113517 20 0.0 0.0 0.00 0.00 0.00 77 1017.2
20230207112519 20 0.0 0.0 0.00 0.00 0.00 75 1017.0
20230207111522 20 0.0 0.0 0.00 0.00 0.00 76 1016.9
20230207110527 21 0.0 0.0 0.00 0.00 0.00 76 1017.0
20230207105529 21 0.0 0.0 0.00 0.00 0.00 78 1017.0
20230207104607 20 0.0 0.0 0.00 0.00 0.00 79 1016.8